Regional Weather Roundup
Issued by NWS

Home | Current Version | Previous Version | Graphics & Text | Print | Product List | Glossary On
Versions: 1 2 3 4 5 6 7 8 9 10 11 12 13 14 15 16 17 18 19 20 21 22 23 24 25 26 27 28 29 30 31 32 33 34 35 36 37 38 39 40 41 42 43 44 45 46 47 48 49 50
000
ASUS43 KFSD 161602
RWRSD

WEATHER ROUNDUP FOR SOUTH DAKOTA
NATIONAL WEATHER SERVICE SIOUX FALLS SD
1100 AM CDT WED AUG 16 2017

NOTE: "FAIR" INDICATES FEW OR NO CLOUDS BELOW 12,000 FEET WITH NO
SIGNIFICANT WEATHER AND/OR OBSTRUCTIONS TO VISIBILITY.


SDZ001>005-009-010-012>017-161700-
NORTHWEST AND NORTH CENTRAL SOUTH DAKOTA

CITY           SKY/WX    TMP DP  RH WIND       PRES   REMARKS
BUFFALO          N/A     72  56  57 VRB3      29.95R
FAITH            N/A     67  59  75 N12       29.96S
MOBRIDGE       CLOUDY    66  60  81 N13       29.89S
$$

SDZ012>016-024>037-041>051-057-063-072>074-161700-
SOUTHWEST AND SOUTH CENTRAL SOUTH DAKOTA

CITY           SKY/WX    TMP DP  RH WIND       PRES   REMARKS
RAPID CTY ARPT CLOUDY    67  56  67 N20       30.01S
PIERRE         CLOUDY    65  60  84 N17       29.87R
CUSTER         CLOUDY    64  40  41 N9        30.09R
ELLSWORTH AFB  MOSUNNY   67  56  67 N16       30.00S
PHILIP         CLOUDY    68  58  70 N15       29.94S
PINE RIDGE     CLOUDY    65  59  81 N14       30.00R
SPEARFISH      FAIR      68  50  52 VRB7G13   30.06S
WINNER         LGT RAIN  69  66  90 N12       29.87S
$$

SDZ004>011-016>023-039-040-161700-
NORTHEAST SOUTH DAKOTA

CITY           SKY/WX    TMP DP  RH WIND       PRES   REMARKS
ABERDEEN       CLOUDY    68  66  93 NW10      29.84S
WATERTOWN      LGT RAIN  67  66  97 CALM      29.85S FOG
BROOKINGS      LGT RAIN  66  65  96 NE5       29.84F
SISSETON         N/A     67  66  97 S6        29.84S
$$

SDZ017-020-022-023-036>040-048>070-161700-
SOUTHEAST SOUTH DAKOTA

CITY           SKY/WX    TMP DP  RH WIND       PRES   REMARKS
SIOUX FALLS    LGT RAIN  69  67  93 NE7       29.81F
HURON          CLOUDY    68  67  96 E3        29.83F
CHAMBERLAIN    LGT RAIN  69  69 100 N6        29.86S
MITCHELL       LGT RAIN  68  66  93 NE3       29.84F
YANKTON        LGT RAIN  66  65  96 NE10      29.79F
$$

ABBREVIATIONS USED IN REMARKS
   TC - TEMPERATURE IN CELSIUS
  WCI - WIND CHILL INDEX
   HX - HEAT INDEX
  VSB - VISIBILITY




USA.gov is the U.S. government's official web portal to all federal, state and local government web resources and services.